Location: Oregon Trail
(41.1872°N, 102.0741°W)
Time: 23:58:27
(UTC+00:00)

Tsikada Rocket - Pass Details

Date: 19 November 2019
Orbit: 958 x 1009 km, 82.9° (Epoch: 14 December)

Event Time Altitude Azimuth Distance (km) Brightness Sun altitude
Rises 12:32:53 0° 350° (N) 3,740 6.8 -12.8°
Reaches altitude 10° 12:35:27 10° 348° (NNW) 2,781 6.1 -12.3°
Maximum altitude 12:41:47 69° 266° (W) 1,061 4.0 -11.2°
Drops below altitude 10° 12:48:00 10° 185° (S) 2,730 6.5 -10.1°
Sets 12:50:30 0° 183° (S) 3,667 7.2 -9.6°
